Theta_e
313 311 310 310 310 310 309 309 308 308 309 309 310 311 312 313 313 314 315 317 316 315 329 333 337 339 346 351 350 346 344 346 348 348 350 349 349 348 348 346 346 346 344 343 342
316 316 315 314 312 311 311 311 310 309 309 309 309 310 310 312 313 316 319 318 316 316 327 337 339 342 349 350 352 342 341 344 339 343 347 349 349 348 348 346 347 346 344 342 342
316 316 316 315 316 315 313 312 311 311 310 310 309 309 309 310 312 318 321 321 318 316 319 331 341 347 350 351 350 343 347 341 341 341 347 349 349 349 347 346 346 345 345 343 342
313 313 313 313 315 315 315 315 313 312 312 311 310 309 309 309 313 319 320 321 321 316 321 337 348 349 341 338 350 346 343 345 343 341 346 348 349 348 346 344 342 345 341 342 343
308 309 308 309 311 313 314 314 316 314 313 312 311 310 308 309 313 319 320 318 322 317 317 334 349 346 331 332 340 346 344 340 341 341 345 348 348 347 347 345 344 343 343 343 344
306 306 305 306 308 310 312 313 314 317 315 314 312 310 308 305 315 316 317 319 319 318 320 327 340 341 327 322 330 333 341 340 335 337 344 347 347 347 348 347 345 343 345 345 343
306 306 307 307 307 307 311 315 315 318 318 316 313 310 308 312 314 317 317 318 320 317 321 324 330 334 325 321 324 326 327 329 335 337 343 346 348 348 347 347 345 345 346 346 344
307 307 307 307 308 309 311 314 317 319 318 315 313 310 309 314 313 313 317 316 319 316 316 322 324 327 323 323 323 322 323 324 326 336 341 346 351 346 347 347 347 345 345 346 346
304 305 306 307 307 309 310 314 316 316 316 317 315 310 312 314 314 315 314 317 317 319 320 321 321 323 322 320 319 317 323 323 325 331 334 343 339 339 346 346 348 347 346 346 346
303 303 304 304 305 310 311 313 315 319 321 319 319 315 317 317 323 322 315 315 317 319 321 321 323 319 316 317 320 321 321 322 326 326 333 335 334 338 346 346 348 348 347 347 347
302 302 302 303 304 309 311 313 312 313 311 320 321 318 318 319 321 322 324 315 318 317 318 322 320 321 319 318 320 321 322 324 324 327 334 331 335 345 345 346 347 348 348 347 347
301 301 301 302 303 308 311 309 306 306 306 313 316 315 318 319 318 323 322 317 318 317 316 316 321 320 320 319 321 320 321 322 321 322 325 324 334 346 345 346 347 348 348 348 348
301 301 301 302 303 305 308 307 305 308 306 310 313 314 314 316 315 318 322 318 316 316 318 321 319 320 321 320 321 319 321 321 322 322 325 334 334 345 346 346 346 346 347 348 348
301 301 301 301 303 302 306 306 304 310 306 311 311 313 313 315 313 319 320 320 318 319 315 317 319 321 318 320 320 318 319 322 322 321 322 331 332 339 347 347 345 344 344 346 347
301 301 302 302 302 302 304 305 306 308 317 319 312 313 315 316 316 316 320 320 317 318 317 319 318 319 320 322 320 321 321 320 321 320 321 325 332 332 342 348 346 345 344 344 344
301 301 302 302 302 304 302 303 309 311 316 318 315 313 313 313 314 318 319 321 321 318 318 318 318 320 319 319 320 320 321 317 316 317 320 321 325 323 337 347 347 345 345 345 345
301 301 302 304 305 307 304 304 307 312 313 316 314 314 314 314 314 316 317 320 320 318 318 319 319 319 318 319 319 320 318 318 319 319 324 319 323 325 330 336 342 344 344 344 346
301 302 303 304 305 305 305 305 309 312 312 313 314 314 316 313 314 314 316 321 320 319 318 319 320 319 318 318 318 318 316 317 319 319 322 317 322 323 325 334 336 339 341 342 343
301 302 303 304 305 304 307 305 308 310 312 313 313 314 313 313 314 314 314 320 322 318 320 318 320 321 319 320 320 317 319 316 315 316 316 318 320 324 325 326 334 336 336 337 339
302 302 303 304 305 305 305 306 307 309 310 310 312 312 312 312 314 312 314 316 318 318 315 319 321 320 319 320 319 317 316 319 311 320 319 317 320 324 327 327 328 330 335 337 337
302 303 303 304 305 306 303 305 308 309 310 309 310 311 311 313 313 313 313 316 316 317 316 315 317 319 319 321 322 317 316 315 317 313 318 317 319 318 325 325 326 328 332 335 337
303 299 303 305 302 301 305 304 309 310 309 309 309 310 311 313 313 313 317 316 314 314 319 318 311 318 319 320 321 322 319 313 317 316 314 314 319 319 320 324 325 326 328 331 334
302 301 303 304 301 301 302 305 307 309 309 308 309 311 311 312 312 314 315 313 312 314 319 316 314 314 318 319 319 320 319 318 317 312 317 318 320 319 318 321 323 327 331 332 334
302 300 302 303 302 302 302 303 306 307 308 308 309 310 310 311 311 312 313 313 311 314 317 313 312 314 319 318 317 317 319 318 319 321 321 320 319 321 319 320 320 323 326 327 329
303 302 302 300 301 303 301 303 305 306 306 307 309 308 307 310 310 311 310 310 310 313 310 310 315 315 316 316 318 319 319 319 319 320 321 321 320 318 318 319 321 323 325 328 329
303 303 302 302 303 303 302 302 305 304 305 306 309 307 305 307 310 309 307 308 309 310 309 307 312 314 316 317 317 318 318 319 319 319 319 320 319 318 320 321 321 323 325 327 330
302 303 302 303 302 303 303 303 303 303 304 306 306 305 305 308 307 307 307 307 307 308 308 308 310 314 315 316 317 319 318 319 319 319 319 320 320 319 318 317 319 323 325 325 326
Wind_Speed
17 17 17 17 17 17 17 18 18 17 18 18 16 16 17 19 19 22 28 22 15 19 12 25 24 22 25 11 4 3 4 4 3 5 3 16 5 12 5 17 6 8 15 30 36
20 20 19 19 18 18 17 17 18 18 18 18 17 17 17 19 22 26 23 22 20 19 20 34 29 28 11 8 6 3 3 7 6 5 6 16 11 16 5 15 4 8 14 38 38
21 21 21 21 20 20 20 19 18 18 18 17 17 17 17 16 20 5 0 4 20 23 25 24 25 22 5 9 9 7 6 5 5 10 16 18 13 15 12 8 14 24 34 42 40
23 23 22 23 23 22 21 21 20 19 18 18 17 15 16 12 6 4 1 3 14 27 28 28 27 13 7 7 14 4 16 9 10 11 13 13 17 12 20 6 23 24 42 46 42
24 23 24 24 24 23 23 24 22 20 18 18 18 15 14 11 27 9 9 12 14 33 34 33 34 14 7 7 8 7 10 5 14 7 22 17 20 16 22 10 16 30 44 46 43
26 26 26 26 25 25 24 25 25 22 19 18 18 17 14 8 13 9 19 24 14 37 33 35 26 26 5 5 9 6 16 21 10 15 12 16 11 10 17 9 23 35 39 43 43
30 29 29 29 29 29 27 25 25 22 20 18 18 18 19 29 10 7 9 14 14 35 37 37 16 24 4 3 12 12 6 3 9 15 7 14 3 12 9 20 30 35 34 37 41
31 31 31 31 32 34 28 25 22 20 20 17 13 17 13 9 20 30 12 18 14 31 32 29 25 28 7 3 8 3 1 1 1 9 8 18 13 17 20 30 28 33 32 34 37
32 32 33 32 32 33 25 22 16 14 13 8 8 11 9 10 19 20 30 22 26 24 22 11 26 11 7 2 5 5 4 5 5 12 5 9 7 16 33 34 30 31 34 35 35
31 33 33 33 32 24 25 16 6 6 3 3 5 4 15 6 5 7 21 27 28 26 19 11 8 4 3 6 11 6 4 4 5 2 4 9 13 5 33 35 34 34 33 35 36
32 33 34 31 31 21 25 6 7 2 7 11 4 6 3 9 7 7 13 28 20 23 9 10 5 13 10 5 5 5 4 4 2 2 4 7 6 9 23 26 28 33 34 36 42
34 34 36 31 30 15 12 10 13 12 16 20 29 39 29 8 4 14 14 19 12 7 8 5 17 10 9 7 8 5 5 8 4 6 2 4 8 10 17 29 37 36 33 38 38
35 35 35 33 25 15 4 13 20 21 6 16 20 22 23 29 20 24 24 17 6 9 17 19 5 12 12 7 10 5 13 6 5 4 2 4 6 7 13 5 22 27 36 34 36
35 34 35 37 11 27 6 14 22 12 3 7 6 5 12 12 8 41 30 23 6 21 9 6 8 18 8 13 12 9 6 6 7 4 4 3 5 5 13 20 16 24 31 34 41
34 33 34 33 33 27 15 16 18 1 6 1 3 6 13 12 1 12 37 20 10 9 9 11 15 15 17 14 10 8 8 9 6 6 2 3 1 6 10 14 17 22 32 37 41
34 32 37 32 26 20 22 16 3 3 9 3 4 1 4 6 3 5 16 11 11 6 1 8 6 14 11 7 11 8 4 6 5 4 7 10 9 5 8 19 20 21 32 37 39
33 33 35 16 23 21 18 6 2 5 6 4 4 5 5 4 2 5 9 14 11 8 11 5 13 3 6 8 5 7 8 2 2 3 11 8 8 14 10 16 22 25 38 42 43
33 33 14 15 24 23 7 3 5 2 3 4 5 8 2 7 3 6 9 16 6 5 7 10 6 18 6 10 11 9 9 6 8 4 7 7 9 7 11 16 29 33 42 39 38
34 28 13 19 23 20 4 1 4 3 7 9 7 4 5 5 4 5 4 8 7 3 7 8 10 3 9 6 17 6 11 11 5 2 2 5 6 6 5 11 16 28 29 34 40
33 24 17 23 22 7 4 4 5 6 12 6 4 5 5 6 6 7 5 8 11 6 5 3 1 6 18 6 8 10 9 4 1 6 6 5 4 6 10 13 14 9 23 33 38
25 12 16 23 9 4 2 4 7 18 19 6 6 6 4 4 4 5 6 5 11 10 7 5 4 3 9 11 18 4 6 3 6 6 7 0 6 8 10 14 18 19 31 37 41
13 4 18 17 8 3 3 9 12 13 16 5 4 3 3 4 4 5 4 4 14 9 4 1 3 7 6 2 9 21 9 7 6 8 6 4 7 4 10 11 13 20 28 39 37
18 6 10 16 4 4 7 5 4 9 9 8 4 5 4 3 3 4 4 6 18 9 4 6 2 2 4 8 3 5 10 12 10 3 12 8 7 6 4 7 15 17 27 31 31
9 5 7 7 6 4 5 5 6 10 6 11 9 7 6 5 5 4 6 4 10 6 8 3 2 3 3 2 4 6 7 8 17 14 15 18 9 3 6 9 10 22 31 30 28
4 2 2 4 5 7 6 4 7 7 4 6 4 13 7 3 3 3 5 5 6 7 5 3 0 2 3 10 7 12 15 14 13 22 15 13 18 10 9 11 19 33 30 25 25
4 4 3 9 9 7 6 4 5 8 3 8 4 13 13 3 2 2 6 2 4 6 5 5 2 2 3 9 10 11 14 16 15 10 11 18 9 9 19 23 14 25 25 24 25
5 9 6 3 4 3 2 3 10 9 10 7 8 12 9 3 12 17 17 18 11 2 2 3 2 2 4 4 10 16 10 15 9 8 9 16 10 7 9 10 17 30 31 32 33
Wind_Direction
333 328 325 322 320 317 313 311 307 303 300 298 296 295 293 293 289 282 271 267 257 225 193 171 173 177 171 158 164 146 78 279 264 187 212 150 123 155 164 144 159 158 162 165 160
336 333 328 322 318 315 311 308 305 302 299 297 296 295 293 295 295 285 288 260 243 217 188 174 173 171 172 184 181 140 158 219 233 213 176 163 143 155 121 157 171 155 155 160 162
336 334 331 325 319 315 311 305 301 299 297 294 295 297 298 300 307 277 139 215 211 209 200 184 170 162 169 173 193 187 217 223 283 226 178 164 163 161 146 206 198 161 158 164 167
340 337 335 331 322 315 314 306 298 294 295 292 290 291 292 291 268 198 106 24 201 189 187 175 170 167 188 195 195 218 243 237 284 277 176 188 174 184 180 209 205 193 169 169 175
347 344 340 334 326 316 313 309 301 292 287 286 286 285 282 253 247 233 234 289 192 182 186 179 172 184 176 197 179 237 249 205 238 199 194 181 195 177 205 247 186 171 169 172 179
352 349 346 340 332 324 312 306 301 291 280 276 277 273 257 238 275 255 238 245 235 184 188 183 193 189 207 211 186 216 252 258 255 241 186 171 200 181 205 180 171 170 174 178 183
351 350 347 345 340 333 321 308 299 287 281 274 266 258 246 249 244 227 220 207 214 187 184 190 190 189 226 289 264 268 277 250 199 216 191 171 160 222 206 178 167 173 182 185 190
348 346 344 344 342 337 328 309 296 285 284 281 261 234 242 259 228 223 205 176 180 188 191 193 199 201 214 275 344 318 97 78 206 182 195 157 218 220 197 175 172 178 185 193 196
344 343 341 343 344 342 343 324 306 290 286 270 217 199 252 240 234 224 217 197 186 188 197 200 212 221 217 123 354 340 231 197 306 187 135 169 235 218 186 178 176 186 187 197 202
345 343 342 341 345 349 349 337 336 312 278 255 218 231 233 215 166 168 205 207 190 186 202 197 189 169 156 159 209 202 209 240 230 207 153 196 247 193 178 179 181 188 191 197 204
347 344 341 343 342 342 353 353 337 298 297 232 214 251 162 168 199 209 190 178 182 176 160 180 174 214 199 186 160 189 205 215 234 232 159 218 238 195 181 185 186 190 191 198 209
350 348 341 344 338 359 31 61 36 335 299 277 257 249 235 223 304 192 187 161 173 176 127 119 220 200 179 196 185 188 229 254 305 263 168 255 233 188 182 197 194 189 193 200 210
352 351 343 339 339 352 18 14 352 331 251 286 245 245 243 232 227 221 192 178 153 151 186 200 221 168 184 180 195 207 216 186 206 343 276 106 309 170 212 209 205 205 199 207 208
351 352 345 340 344 336 340 327 339 322 310 269 238 244 174 173 230 225 202 177 174 194 131 207 220 188 165 204 179 214 177 156 164 129 218 142 265 249 204 208 202 202 203 206 216
349 350 341 344 330 335 318 311 334 142 317 110 179 160 171 188 191 207 195 197 171 165 149 209 183 184 203 199 175 218 151 188 163 191 175 231 38 259 172 208 215 210 212 209 211
347 345 341 341 332 326 302 311 323 55 248 343 71 61 134 237 283 86 186 195 180 126 309 189 197 185 194 170 177 161 102 54 48 112 243 217 186 235 183 211 217 219 218 215 212
344 339 345 6 358 337 314 318 79 198 332 13 343 13 327 310 244 145 188 190 169 146 194 196 222 193 153 162 164 145 113 301 290 199 239 181 190 227 211 205 207 212 219 216 212
341 341 358 23 354 357 337 66 216 279 347 343 339 305 107 352 357 335 148 192 208 107 154 181 220 205 184 190 185 182 153 163 204 209 228 125 226 242 192 213 215 221 219 219 215
339 350 26 357 350 355 9 177 222 348 346 329 313 51 354 350 347 338 0 202 199 180 162 173 239 216 170 160 165 192 194 178 81 268 42 221 297 312 183 205 211 222 221 219 216
342 344 4 349 335 344 63 282 289 4 350 341 355 28 12 337 23 21 29 339 337 7 346 221 232 204 205 129 188 167 150 150 13 196 238 276 248 219 195 202 209 221 217 225 220
347 337 357 345 12 56 95 276 303 335 336 332 345 331 3 360 357 359 3 46 7 336 28 14 126 304 121 201 193 129 181 128 153 162 206 291 254 207 206 215 208 213 215 221 221
351 337 357 7 47 16 342 309 320 338 357 315 268 273 309 6 350 15 49 44 6 326 20 7 111 221 201 228 224 214 188 149 146 222 247 167 245 245 227 202 202 228 228 235 235
336 301 10 20 53 345 306 291 328 347 334 330 321 27 355 26 8 8 15 69 12 10 29 331 359 75 58 295 165 190 216 193 217 90 211 193 241 261 220 207 238 238 238 237 234
344 347 344 42 41 352 329 300 350 342 347 335 332 43 11 12 11 351 356 26 343 9 22 43 78 101 216 299 358 314 294 205 208 224 231 233 267 309 249 235 241 238 246 251 249
347 324 334 308 335 332 323 285 319 355 341 355 347 19 354 327 1 17 356 338 322 19 19 82 355 337 238 281 252 248 262 269 244 224 221 234 236 229 242 223 235 241 242 242 248
316 313 296 290 295 313 327 300 322 351 306 327 325 342 335 280 9 315 18 318 278 343 14 358 253 147 274 274 300 284 267 258 253 256 258 252 247 197 220 230 249 248 246 240 238
311 296 287 296 307 293 269 295 311 331 292 233 318 324 325 345 320 288 265 254 246 294 339 327 212 129 254 304 322 297 258 242 238 209 208 234 227 244 239 214 225 238 242 242 251